Weather reports worldwide

Advertisment
Brive, France (7438): temperature & dewpoint: 16.06.2018 15:00:00 - 22.06.2018 15:00:00 (CEST)Brive, France (7438): temperature 5cm: 16.06.2018 15:00:00 - 22.06.2018 15:00:00 (CEST)Brive, France (7438): temperature -20cm & temperature -100cm: 16.06.2018 15:00:00 - 22.06.2018 15:00:00 (CEST)Brive, France (7438): wind speed & gusts: 16.06.2018 15:00:00 - 22.06.2018 15:00:00 (CEST)Brive, France (7438): wind direction: 16.06.2018 15:00:00 - 22.06.2018 15:00:00 (CEST)Brive, France (7438): reduced air pressure: 16.06.2018 15:00:00 - 22.06.2018 15:00:00 (CEST)Brive, France (7438): visibility: 16.06.2018 15:00:00 - 22.06.2018 15:00:00 (CEST)Brive, France (7438): sunshine duration: 16.06.2018 15:00:00 - 22.06.2018 15:00:00 (CEST)Brive, France (7438): precipitation: 16.06.2018 15:00:00 - 22.06.2018 15:00:00 (CEST)
Date & Time tt [°C] td [°C] tt 5cm [°C] tt -20cm [°C] tt -100cm [°C] ff [km/h] ff [kn] fx [km/h] fx [kn] dd ppp [hPa] vv [km] sd [min] rr [mm]
22.06.2018 15:00:00 25,8 -1,9 31,2 25,0 19,8 21 12 34 18 NE 1021,2 20 60 0,0
22.06.2018 14:00:00 25,2 0,6 30,6 24,5 19,8 22 12 41 22 E 1021,6 18 60 0,0
22.06.2018 13:00:00 24,1 0,4 29,0 24,1 19,8 21 11 36 19 E 1022,0 16 60 -
22.06.2018 12:00:00 23,2 2,6 26,8 24,0 19,8 18 10 39 21 ENE 1022,0 20 60 0,0
22.06.2018 11:00:00 22,0 2,6 24,8 24,0 19,8 19 10 33 18 ENE 1022,0 20 60 0,0
22.06.2018 10:00:00 20,0 9,3 19,9 24,1 19,7 8 5 18 10 NNE 1021,9 20 60 0,0
22.06.2018 09:00:00 17,6 9,2 18,1 24,4 19,7 10 5 19 10 N 1021,9 20 60 0,0
22.06.2018 08:00:00 16,5 9,2 15,3 24,7 19,7 8 5 17 9 N 1021,8 20 60 0,0
22.06.2018 07:00:00 15,8 9,5 14,2 25,1 19,7 9 5 19 10 NNE 1021,6 20 25 0,0
22.06.2018 06:00:00 15,7 10,7 14,6 25,4 19,7 6 4 19 10 NNE 1021,2 20 0 0,0
22.06.2018 05:00:00 17,0 11,9 16,2 25,8 19,7 9 5 21 11 N 1020,7 20 0 0,0
22.06.2018 04:00:00 17,9 13,8 16,9 26,1 19,7 7 4 14 8 N 1020,5 20 0 0,0
22.06.2018 03:00:00 19,0 14,7 18,0 26,4 19,6 5 3 13 7 N 1020,6 20 0 0,0
22.06.2018 02:00:00 20,1 15,1 19,0 26,7 19,6 6 3 18 10 N 1020,3 20 0 0,0
22.06.2018 01:00:00 21,2 15,7 20,4 27,1 19,6 10 5 22 12 N 1020,0 20 0 0,0
22.06.2018 00:00:00 22,5 16,1 21,5 27,4 19,6 9 5 22 12 N 1020,0 20 0 0,0
21.06.2018 23:00:00 23,9 16,4 23,0 27,6 19,6 10 5 27 15 N 1019,6 20 0 0,0
21.06.2018 22:00:00 25,5 15,8 24,6 27,8 19,6 11 6 25 14 N 1018,4 20 16 0,0
21.06.2018 21:00:00 27,8 15,5 28,1 27,9 19,6 10 5 30 16 NNW 1017,8 20 60 0,0
21.06.2018 20:00:00 29,5 15,6 31,5 27,8 19,6 16 8 29 16 N 1017,2 20 60 0,0
21.06.2018 19:00:00 30,5 15,8 31,0 27,5 19,6 15 8 30 16 N 1016,9 20 50 0,0
21.06.2018 18:00:00 31,6 12,9 33,9 27,1 19,6 12 7 25 14 NW 1016,9 20 60 0,0
21.06.2018 17:00:00 32,0 12,3 35,9 26,5 19,5 10 5 25 13 NW 1017,0 20 60 0,0
21.06.2018 16:00:00 31,7 12,0 36,1 25,9 19,5 11 6 22 12 NW 1017,3 20 60 0,0
21.06.2018 15:00:00 31,3 14,0 34,6 25,3 19,5 10 5 24 13 NNW 1017,5 20 58 0,0
21.06.2018 14:00:00 30,8 14,4 35,4 24,7 19,5 6 3 19 11 N 1017,4 20 60 0,0
21.06.2018 13:00:00 29,6 17,1 35,3 24,2 19,5 7 4 17 9 N 1017,8 20 60 0,0
21.06.2018 12:00:00 28,3 18,1 32,9 23,9 19,5 4 2 14 8 N 1018,3 20 60 0,0
21.06.2018 11:00:00 26,6 19,5 - - - 5 3 11 6 N 1018,3 18 - -
21.06.2018 10:00:00 24,6 18,1 24,8 23,8 19,5 4 2 8 4 N 1018,6 20 50 0,0
21.06.2018 09:00:00 22,6 17,3 22,6 24,0 19,4 0 0 0 0 N 1019,1 19 54 0,0
21.06.2018 08:00:00 19,9 17,1 17,7 24,2 19,4 0 0 0 0 N 1019,0 20 60 0,0
21.06.2018 07:00:00 17,6 16,8 16,0 24,5 19,4 0 0 0 0 N 1018,6 20 28 0,0
21.06.2018 06:00:00 16,7 16,2 16,0 24,8 19,4 0 0 0 0 N 1018,3 19 0 0,0
21.06.2018 05:00:00 17,3 16,7 16,5 25,1 19,4 0 0 4 2 N 1018,1 20 0 0,0
21.06.2018 04:00:00 17,8 16,8 17,1 25,4 19,3 2 1 3 2 SSE 1018,4 20 0 0,0
21.06.2018 03:00:00 18,4 17,2 17,4 25,7 19,4 0 0 4 2 N 1018,3 20 0 0,0
21.06.2018 02:00:00 19,3 17,4 18,3 26,0 19,3 2 1 5 3 SSE 1018,2 20 0 0,0
21.06.2018 01:00:00 20,4 17,4 18,9 26,3 19,4 0 0 3 1 N 1018,3 20 0 0,0
21.06.2018 00:00:00 21,5 17,5 20,1 26,6 19,3 2 1 5 3 SSE 1018,2 20 0 0,0
20.06.2018 23:00:00 23,1 17,3 21,7 26,8 19,3 3 1 6 4 SE 1017,9 17 0 0,0
20.06.2018 22:00:00 26,8 18,4 23,9 26,9 19,3 0 0 9 5 N 1017,1 20 18 0,0
20.06.2018 21:00:00 30,9 14,9 30,4 26,9 19,3 5 3 10 5 WNW 1016,6 20 56 0,0
20.06.2018 20:00:00 31,9 13,6 34,4 26,7 19,3 6 3 13 7 NW 1016,5 20 60 0,0
20.06.2018 19:00:00 32,1 14,3 36,5 26,4 19,3 5 3 16 8 NNW 1016,5 20 60 0,0
20.06.2018 18:00:00 32,2 14,3 36,4 25,9 19,3 4 2 14 7 N 1016,8 20 60 0,0
20.06.2018 17:00:00 32,2 13,4 36,8 25,3 19,3 7 4 19 10 W 1017,0 20 60 0,0
20.06.2018 16:00:00 31,9 13,2 37,8 24,6 19,3 9 5 19 10 N 1017,3 19 60 0,0
20.06.2018 15:00:00 31,4 14,5 37,0 23,9 19,3 6 3 15 8 WNW 1017,6 20 60 0,0
20.06.2018 14:00:00 31,1 12,0 35,8 23,3 19,3 7 4 15 8 WSW 1018,0 20 60 0,0
20.06.2018 13:00:00 30,7 13,5 35,8 22,7 19,3 4 2 15 8 S 1018,4 20 60 0,0
20.06.2018 12:00:00 28,9 16,5 33,6 22,4 19,3 7 4 14 7 E 1018,8 17 60 0,0
20.06.2018 11:00:00 27,3 16,3 31,3 22,2 19,2 4 2 18 10 ESE 1019,2 20 60 0,0
20.06.2018 10:00:00 25,4 15,7 26,3 22,3 19,2 6 3 14 8 ESE 1019,4 19 60 0,0
20.06.2018 09:00:00 22,5 15,8 22,6 22,5 19,3 3 1 6 4 NE 1019,8 20 60 0,0
20.06.2018 08:00:00 19,5 15,6 16,0 22,7 19,2 0 0 5 3 N 1020,1 20 60 0,0
20.06.2018 07:00:00 16,1 15,1 14,3 23,0 19,3 3 2 6 3 SE 1020,1 20 28 0,0
20.06.2018 06:00:00 15,2 14,6 14,3 23,2 19,3 3 1 5 3 ESE 1020,0 18 0 0,0
20.06.2018 05:00:00 16,4 15,6 15,0 23,5 19,3 0 0 5 3 N 1019,9 20 0 0,0
20.06.2018 04:00:00 16,8 15,7 15,5 23,8 19,2 0 0 4 2 N 1019,8 20 0 0,0
20.06.2018 03:00:00 18,0 15,8 16,1 24,0 19,2 0 0 3 1 N 1020,0 20 0 0,0
20.06.2018 02:00:00 19,5 16,2 17,2 24,3 19,3 2 1 4 2 SSW 1020,0 20 0 0,0
20.06.2018 01:00:00 21,4 16,1 18,2 24,5 19,2 0 0 4 2 N 1019,9 20 0 0,0
20.06.2018 00:00:00 21,5 16,7 19,1 24,7 19,2 0 0 5 3 N 1019,9 14 0 0,0
19.06.2018 23:00:00 23,9 17,2 20,7 24,9 19,2 0 0 9 5 N 1019,8 20 0 0,0
19.06.2018 22:00:00 26,4 16,6 24,0 25,0 19,3 5 3 11 6 SE 1019,0 20 18 0,0
19.06.2018 21:00:00 29,6 16,1 29,7 24,8 19,3 6 3 14 7 W 1018,6 20 60 0,0
19.06.2018 20:00:00 30,9 12,3 35,0 24,6 19,2 6 3 13 7 ENE 1018,7 20 60 0,0
19.06.2018 19:00:00 31,3 13,1 35,9 24,3 19,2 6 3 16 8 NNE 1019,0 20 60 0,0
19.06.2018 18:00:00 31,4 13,2 36,2 23,7 19,2 7 4 19 11 NNE 1019,5 20 60 0,0
19.06.2018 17:00:00 30,8 12,7 36,3 23,1 19,3 9 5 21 11 ENE 1020,0 18 60 0,0
19.06.2018 16:00:00 30,0 12,4 35,2 22,5 19,3 11 6 27 14 ENE 1020,5 17 60 0,0
19.06.2018 15:00:00 29,3 14,3 35,3 21,8 19,2 13 7 24 13 E 1021,3 20 60 0,0
19.06.2018 14:00:00 27,7 14,0 32,6 21,2 19,3 10 6 26 14 NE 1021,9 18 60 0,0
19.06.2018 13:00:00 26,2 15,0 30,1 20,7 19,3 7 4 17 9 N 1022,7 20 55 0,0
19.06.2018 12:00:00 24,7 14,8 26,7 20,5 19,2 8 4 26 14 NNE 1023,3 20 42 0,0
19.06.2018 11:00:00 23,1 15,2 24,7 20,3 19,2 7 4 18 10 N 1024,0 20 30 0,0
19.06.2018 10:00:00 20,8 16,0 21,0 20,3 19,2 2 1 7 4 NNW 1024,8 20 60 0,0
19.06.2018 09:00:00 17,0 15,2 16,8 20,4 19,2 3 2 8 4 W 1025,3 19 - 0,0
19.06.2018 08:00:00 14,8 14,5 13,8 20,6 19,2 3 2 6 4 NW 1025,7 4,0 50 0,0
19.06.2018 07:00:00 13,7 13,7 12,1 20,7 19,2 0 0 4 2 N 1025,8 1,5 25 0,0
19.06.2018 06:00:00 13,1 13,1 12,0 21,0 19,3 0 0 3 2 N 1025,8 9 0 0,0
19.06.2018 05:00:00 13,4 13,2 12,4 21,2 19,3 0 0 5 3 N 1025,6 20 0 0,0
19.06.2018 04:00:00 13,6 13,4 12,4 21,4 19,3 0 0 3 1 N 1025,6 20 0 0,0
19.06.2018 03:00:00 14,3 14,0 13,2 21,6 19,2 2 1 4 2 ESE 1025,7 20 0 0,0
19.06.2018 02:00:00 15,0 14,5 13,7 21,8 19,3 0 0 3 2 N 1025,7 20 0 0,0
19.06.2018 01:00:00 16,0 15,2 14,5 22,0 19,2 2 1 4 2 E 1025,7 20 0 0,0
19.06.2018 00:00:00 17,7 15,9 15,6 22,2 19,3 0 0 6 3 N 1025,7 20 0 0,0
18.06.2018 23:00:00 19,1 15,8 17,5 22,3 19,3 3 2 9 5 W 1025,1 20 0 0,0
18.06.2018 22:00:00 20,3 15,9 19,2 22,3 19,2 7 4 13 7 WSW 1024,7 20 18 0,0
18.06.2018 21:00:00 22,5 15,3 23,4 22,3 19,2 6 3 13 7 NW 1024,3 20 57 0,0
18.06.2018 20:00:00 22,6 16,4 23,3 22,2 19,2 4 2 13 7 N 1024,4 20 9 0,0
18.06.2018 19:00:00 22,1 15,7 23,1 22,0 19,2 5 3 13 7 W 1024,6 20 9 0,0
18.06.2018 18:00:00 21,7 15,5 24,3 21,8 19,2 5 3 14 7 WNW 1024,8 20 1 0,0
18.06.2018 17:00:00 21,2 15,9 24,1 21,5 19,2 8 4 16 8 WSW 1025,1 20 13 0,0
18.06.2018 16:00:00 20,2 15,8 23,8 21,3 19,2 8 5 18 10 W 1025,7 18 1 0,0
18.06.2018 15:00:00 20,2 15,0 23,3 21,1 19,2 5 3 11 6 WNW 1025,8 20 0 0,0
18.06.2018 14:00:00 19,8 14,4 23,1 20,9 19,3 3 2 11 6 W 1025,8 20 2 0,0
18.06.2018 13:00:00 19,1 14,8 19,4 20,7 19,2 3 1 11 6 NNE 1026,2 20 0 0,0
18.06.2018 12:00:00 17,9 14,2 20,1 20,6 19,2 4 2 10 6 NW 1026,2 20 7 0,0
18.06.2018 11:00:00 17,0 14,5 18,2 20,6 19,2 5 3 11 6 WNW 1026,2 20 0 0,0
18.06.2018 10:00:00 15,6 14,3 15,9 20,6 19,2 3 2 9 5 W 1026,6 20 0 0,0
18.06.2018 09:00:00 14,7 13,7 15,1 20,7 19,2 4 2 9 5 WNW 1026,5 5 0 0,0
18.06.2018 08:00:00 14,9 13,3 15,0 20,9 19,2 4 2 7 4 WSW 1026,0 8 0 0,0
18.06.2018 07:00:00 14,5 12,9 14,2 21,0 19,2 3 2 7 4 W 1025,9 20 0 0,0
18.06.2018 06:00:00 14,3 12,3 14,2 21,2 19,2 4 2 7 4 W 1025,7 20 0 0,0
18.06.2018 05:00:00 14,1 12,5 14,0 21,4 19,2 0 0 4 2 N 1025,4 20 0 0,0
18.06.2018 04:00:00 14,1 12,1 13,7 21,7 19,2 0 0 10 5 N 1025,3 20 0 0,0
18.06.2018 03:00:00 14,6 11,6 13,6 21,9 19,2 7 4 11 6 WSW 1025,3 20 0 0,0
18.06.2018 02:00:00 15,2 11,8 13,9 22,2 19,2 4 2 8 4 WSW 1025,2 20 0 0,0
18.06.2018 01:00:00 15,9 11,9 14,0 22,4 19,2 0 0 9 5 N 1025,3 20 0 0,0
18.06.2018 00:00:00 17,0 11,9 15,8 22,6 19,2 5 3 11 6 WSW 1024,9 20 0 0,0
17.06.2018 23:00:00 18,4 11,7 17,0 22,9 19,2 5 3 17 9 W 1024,6 20 0 0,0
17.06.2018 22:00:00 19,7 11,7 18,9 23,0 19,2 11 6 23 12 NW 1024,0 20 17 0,0
17.06.2018 21:00:00 21,6 11,6 21,2 23,0 19,2 8 4 19 11 WNW 1022,9 20 32 0,0
17.06.2018 20:00:00 22,3 11,7 22,9 22,9 19,2 10 5 24 13 WNW 1022,8 20 51 0,0
17.06.2018 19:00:00 23,1 12,4 22,2 22,7 19,2 15 8 27 15 W 1022,6 20 27 0,0
17.06.2018 18:00:00 21,9 11,6 22,7 22,4 19,2 10 5 19 10 WNW 1022,8 20 19 0,0
17.06.2018 17:00:00 23,1 11,2 25,3 22,1 19,2 8 4 22 12 WNW 1022,6 20 40 0,0
17.06.2018 16:00:00 22,0 11,1 23,0 21,8 19,2 9 5 21 11 WSW 1023,0 20 22 0,0
17.06.2018 15:00:00 21,6 11,0 23,7 21,6 19,2 8 4 18 10 NW 1022,9 20 11 0,0
17.06.2018 14:00:00 21,0 10,2 22,1 21,2 19,2 8 4 19 11 W 1023,1 20 13 0,0
17.06.2018 13:00:00 20,2 10,3 23,5 21,0 19,2 11 6 24 13 NNW 1023,3 20 22 0,0
17.06.2018 12:00:00 19,6 12,1 21,8 20,8 19,2 6 3 16 9 W 1023,3 20 29 0,0
17.06.2018 11:00:00 18,5 12,0 20,9 20,7 19,2 5 3 11 6 W 1023,4 20 25 0,0
17.06.2018 10:00:00 16,8 12,3 17,5 20,8 19,2 3 1 9 5 NE 1023,6 20 0 0,0
17.06.2018 09:00:00 15,3 12,6 16,1 20,9 19,2 3 2 10 5 W 1023,8 20 5 0,0
17.06.2018 08:00:00 14,6 12,5 13,6 21,1 19,2 3 1 8 5 W 1023,4 20 19 0,0
17.06.2018 07:00:00 13,5 12,6 13,5 21,3 19,2 6 3 15 8 W 1023,1 20 0 0,0
17.06.2018 06:00:00 13,6 12,7 13,1 21,6 19,2 6 3 11 6 W 1022,5 20 0 0,0
17.06.2018 05:00:00 14,3 12,5 13,6 21,8 19,2 5 3 10 5 W 1022,2 20 0 0,0
17.06.2018 04:00:00 14,6 12,3 13,9 22,1 19,2 6 3 13 7 W 1022,0 20 0 0,0
17.06.2018 03:00:00 16,0 12,0 15,6 22,3 19,2 6 4 11 6 W 1022,0 20 0 0,0
17.06.2018 02:00:00 16,6 11,9 15,8 22,5 19,2 6 3 12 7 W 1021,8 20 0 0,0
17.06.2018 01:00:00 17,4 12,3 17,2 22,7 19,2 7 4 16 8 W 1021,9 20 0 0,0
17.06.2018 00:00:00 18,2 12,9 17,3 23,0 19,2 8 5 16 9 WNW 1021,3 20 0 0,0
16.06.2018 23:00:00 18,8 13,0 17,7 23,1 19,2 6 3 11 6 W 1020,9 20 0 0,0
16.06.2018 22:00:00 19,2 12,9 17,9 23,2 19,2 4 2 12 7 WNW 1020,1 20 14 0,0
16.06.2018 21:00:00 20,3 12,8 20,1 23,3 19,2 7 4 20 11 WNW 1019,6 20 20 0,0
16.06.2018 20:00:00 21,7 12,5 22,6 23,3 19,2 9 5 20 11 W 1018,9 20 47 0,0
16.06.2018 19:00:00 22,2 12,7 22,5 23,2 19,2 9 5 17 9 W 1018,5 20 20 0,0
16.06.2018 18:00:00 22,3 10,4 23,8 22,9 19,2 9 5 19 11 WNW 1018,6 20 13 0,0
16.06.2018 17:00:00 21,8 10,3 23,7 22,4 19,2 10 5 21 11 NNW 1018,7 20 36 0,0
16.06.2018 16:00:00 22,5 10,6 25,8 22,0 19,2 8 4 22 12 NNW 1018,6 20 48 0,0
16.06.2018 15:00:00 23,0 11,1 27,2 21,4 19,2 8 4 25 13 WNW 1018,9 20 52 0,0

tt = temperature
td = dewpoint
tt 5cm = temperature 5cm
tt -20cm = temperature -20cm
tt -100cm = temperature -100cm
ff = wind speed
fx = gusts
dd = wind direction
ppp = reduced air pressure
vv = visibility
sd = sunshine duration
rr = precipitation

Next stations